Regional Weather Roundup
Issued by NWS Wakefield, VA

Home | Current Version | Previous Version | Graphics & Text | Print | Product List | Glossary On
Versions: 1 2 3 4 5 6 7 8 9 10 11 12 13 14 15 16 17 18 19 20 21 22 23 24 25 26 27 28 29 30 31 32 33 34 35 36 37 38 39 40 41 42 43 44 45 46 47 48 49 50
000
ASUS41 KAKQ 202215
RWRAKQ

REGIONAL WEATHER ROUNDUP
NATIONAL WEATHER SERVICE WAKEFIELD VA
600 PM EDT FRI OCT 20 2017

Note: "fair" indicates few or no clouds below 12,000 feet with no
significant weather and/or obstructions to visibility. * = Denotes
station may not report precipitation (e.g., rain,snow,etc.),
thunder or fog.

VAZ042-051-052>054-056-202300-
NORTHERN VIRGINIA

CITY           SKY/WX    TMP DP  RH WIND       PRES   REMARKS
WASH NATIONAL  PTCLDY    73  46  38 NW8       30.20R
DULLES         PTCLDY    71  44  37 N8        30.20S
FORT BELVOIR   CLEAR     72  45  37 CALM      30.19S
QUANTICO       CLEAR     71  49  45 NW5       30.20S
FREDERICKSBRG* CLEAR     74  47  38 N6        30.18S
STAFFORD*      CLEAR     69  50  50 CALM      30.23S
WARRENTON      CLEAR     73  36  26 N3        30.20R
CULPEPER*      CLEAR     74  42  32 CALM      30.21R
MANASSAS*      CLEAR     71  43  36 N7        30.20R
LEESBURG*      CLEAR     72  46  40 N3        30.21S
WINCHESTER     CLEAR     70  43  37 CALM      30.21S
FRONT ROYAL*   CLEAR     70  43  37 CALM      30.20S
LURAY*         CLEAR     73  46  38 NE3       30.20F
$$

VAZ048-049-060>072-079>083-202300-
CENTRAL AND SOUTH CENTRAL VIRGINIA

CITY           SKY/WX    TMP DP  RH WIND       PRES   REMARKS
RICHMOND       PTCLDY    74  53  48 N6        30.18S
CHESTERFIELD*  NOT AVBL
PETERSBURG*    CLEAR     73  54  50 CALM      30.19S
HANOVER        CLEAR     70  58  65 CALM      30.20R
TAPPAHANNOCK*  CLEAR     74  38  27 CALM      30.20R
QUINTON*       FAIR      71  57  61 CALM      30.18S
CHARLOTTSVILLE CLEAR     75  50  41 CALM      30.19S
GORDONSVILLE*  CLEAR     71  54  55 CALM      30.18S
ORANGE*        CLEAR     72  52  49 CALM      30.19S
LOUISA*        CLEAR     68  57  68 CALM      30.19S
BUMPASS*       FAIR      69  58  67 CALM      30.19S
FARMVILLE*     CLEAR     74  52  45 CALM      30.18S
CREWE*         FAIR      73  53  49 CALM      30.19S
FORT PICKETT*  FAIR      72  53  50 CALM      30.19S
CHASE CITY*    FAIR      73  49  43 CALM      30.19S
CLARKSVILLE*   FAIR      70  54  56 CALM      30.19S
SOUTH HILL*    CLEAR     73  53  48 CALM      30.25S
LAWRENCEVILLE* FAIR      71  52  52 CALM      30.19S
EMPORIA*       CLEAR     72  55  56 CALM      30.20S
$$

VAZ088>098-202300-
SOUTHEAST VIRGINIA

CITY           SKY/WX    TMP DP  RH WIND       PRES   REMARKS
NORFOLK        CLEAR     71  57  61 CALM      30.18S
VIRGINIA BEACH PTCLDY    68  55  63 N6        30.17S
NORFOLK NAVAL  PTCLDY    68  56  65 CALM      30.20S
WEST POINT*    CLEAR     71  54  53 NE3       30.20R
SALUDA*        FAIR      69  60  74 CALM      30.18S
NEWPORT NEWS   CLEAR     70  55  59 SW5       30.18S
LANGLEY AFB    CLEAR     66  59  77 NE6       30.18S
FORT EUSTIS    CLEAR     74  59  58 CALM      30.16R
WILLIAMSBURG*  CLEAR     73  61  64 CALM      30.19S
HR EXEC AP*    NOT AVBL
FRANKLIN*      CLEAR     73  53  50 CALM      30.19S
US460-WAKEFLD  CLEAR     70  60  70 CALM      30.18S
$$

VAZ020-022-025-037-045-202300-
WEST CENTRAL AND SOUTHWEST VIRGINIA

CITY           SKY/WX    TMP DP  RH WIND       PRES   REMARKS
STAUNTON*      CLEAR     72  48  43 NE3       30.23S
WAYNESBORO*    CLEAR     71  49  44 NE5       30.22S
HOT SPRINGS VA CLEAR     63  46  53 CALM      30.30S
LYNCHBURG      CLEAR     68  52  56 CALM      30.21S
DANVILLE       CLEAR     74  50  42 CALM      30.20S
SOUTH BOSTON*  FAIR      75  49  39 CALM      30.19F
MARTINSVILLE   CLEAR     72  50  45 CALM      30.23S
ROANOKE        CLEAR     72  52  49 SE3       30.23R
BLACKSBURG     CLEAR     72  48  43 E3        30.27S
DUBLIN*        CLEAR     70  50  48 NE3       30.26S
MARION*        CLEAR     71  38  29 W7        30.28S
HILLSVILLE*    CLEAR     69  40  34 CALM      30.26R
RICHLANDS*     FAIR      69 -34   1 N3        30.27S
WISE*          CLEAR     70  46  43 N3        30.29S
ABINGDON*      CLEAR     74  46  36 CALM      30.24F
$$

MDZ021>025-VAZ099-100-202300-
SOUTHERN MARYLAND AND THE DELMARVA PENINSULA

CITY           SKY/WX    TMP DP  RH WIND       PRES   REMARKS
PATUXENT RIVER PTCLDY    70  52  52 NE3       30.18R
BAY BRIDGE APT CLEAR     70  48  46 CALM      30.18R
LEONARDTOWN    NOT AVBL
DOVER          CLEAR     72  41  33 W5        30.14R
GEORGETOWN     CLEAR     71  43  36 CALM      30.17S
EASTON         CLEAR     70  46  43 CALM      30.21S
CAMBRIDGE      CLEAR     70  52  52 CALM      30.18R
SALISBURY      CLEAR     70  46  42 NW8       30.17R
OCEAN CITY     CLEAR     66  55  67 MISG      30.17R
WALLOPS ISLAND CLEAR     67  59  75 MISG      30.18R
ACCOMACK*      CLEAR     67  53  61 N6        30.18S
$$

NCZ012>017-030>032-202300-
NORTH CENTRAL AND EASTERN NORTH CAROLINA

CITY           SKY/WX    TMP DP  RH WIND       PRES   REMARKS
ROANOKE RAPIDS FAIR      72  57  60 CALM      30.19S
RALEIGH        PTCLDY    74  50  42 E6        30.20S
ELIZABETH CITY CLEAR     70  56  61 SE6       30.19R
AHOSKIE*       CLEAR     70  53  55 CALM      30.19S
EDENTON*       CLEAR     73  58  59 CALM      30.19R
CURRITUCK*     CLEAR     70  58  64 CALM      30.19S
KILL DEVIL HLS CLEAR     68  56  66 CALM      30.17F
MANTEO         CLEAR    N/A N/A N/A E5        30.19S
CAPE HATTERAS  CLEAR     70  58  65 CALM      30.19R
TARBORO*       NOT AVBL
GOLDSBORO      CLEAR     77  46  33 N5        30.17S
WASHINGTON     CLEAR     74  54  50 CALM      30.18S
GREENVILLE     CLEAR     75  50  41 N5        30.19S
NEW BERN       CLEAR     71  61  70 CALM      30.18S
WILMINGTON     CLEAR     73  55  53 S5        30.18R
$$

VAZ048-202300-
ELSEWHERE

CITY           SKY/WX    TMP DP  RH WIND       PRES   REMARKS
HARRISBURG PA  PTCLDY    65  52  62 CALM      30.19R
BALTIMORE      PTCLDY    71  42  35 VRB3      30.18R
ANNAPOLIS      CLEAR     73  50  44 NW3       30.18R
ANDREWS AFB    CLEAR     71  46  40 NW7       30.18S
PHILADELPHIA   PTCLDY    72  35  25 NW9       30.16R
HENDERSON NC   CLEAR     71  47  41 CALM      30.20S
GREENSBORO     PTCLDY    74  48  39 E6        30.20S
ROCKY MOUNT    CLEAR     71  56  58 CALM      30.19S
$$

VAZ100-202300-
MARINE

STATION/POSITION TIME  TEMP    WIND        PRES    WAVE   SWELL
                       AIR SEA DIR/SP/G            HT/PER HT/PER
                 (UTC) (F)     (DEG/KT/KT) (MB)    (FT/S) (FT/S)
BRANDYWINE LGT   2148          330/  5/  6 1021.7R
CAPE MAY NJ      2142   68 65  330/  7/ 10 1020.8R
LEWES DE         2148   68 66  330/  4/  5 1021.3R
15NM E FENWICK I 2150   69 67  330/ 10/ 12 1021.5R   3/ 8   2/ 8
OCEAN-CITY-INLET 2148   70 67  330/  2/  4 1021.9R
WACHAPREAGUE VA  2148   70 67  290/  1/  2 1022.0R
THOMAS POINT MD  2200   70 68  170/  2/  2   N/A
GOOSES REEF MD   2200   75 68     CALM     1024.0    0
COVE POINT MD    2148   69     310/  1/  2 1022.7R
SOLOMONS ISLAND  2148   70 70   30/  5/  6 1021.7R
BISHOPS HEAD MD  2148   69 67  330/  3/  5 1022.4R
PINEY POINT MD   2112          310/  9/ 10   N/A
POTOMAC MD       2200   71 70   20/  6/  8 1021.6
CAMBRIDGE MD     2148                      1022.7R
LEWISETTA VA     2148   72 65  320/  3/  4 1022.1R
RAPPAHANNOCK LGT 2136          360/  6/  6 1022.6S
STINGRAY PT      2200   70 69   70/  6/  8 1022.6    1/ 2
YORK RVR RNG VA  2148   69      80/  7/  8 1022.5S
YORKTOWN VA      2136   70 70   90/  7/  8 1021.7R
JAMESTOWN VA     2200      70  150/  2/  4   N/A     0
DOMINION TERM VA 2136   71     100/  3/  4 1022.2F
KIPTOPEKE VA     2136      68   10/  3/  4   N/A
CAPE HENRY VA    2136   69     330/  5/  6   N/A
WILLOUBY STN VA  2136   69      90/  4/  4 1022.1S
S CRANEY ISL VA  2136   73        CALM     1021.9S
CAPE HENRY BUOY  2200      70                N/A     2/ 8
1ST LANDING BUOY 2200   69 69              1022.0    1/ 4
CAPE CHARLES BUO 2151      70                N/A     2/ 8
64NM E OF VA BCH 2150   68 68  350/  8/  8 1022.4R   3/ 9   2/ 9
DUCK PIER NC     2136   69 71   30/  4/  5 1021.8R
44100 DUCK FRF   2105      71                N/A     2/ 8
44056 DUCK FRF   2200      70                N/A     2/ 8
OREGON INLET NC  2136   70 69   10/  5/  8 1022.1R
HATTERAS NC      2136   71 71  340/  2/  3 1022.1R
DIAMOND SHLS NC  2150   73 81   30/  4/  8 1022.0R   3/ 8   3/ 8
CAPE LOOKOUT NC  2200   72     150/  3/  3 1021.8S
$$



USA.gov is the U.S. government's official web portal to all federal, state and local government web resources and services.